[[{"header":{"parameterUnit":"m.s-1","parameterCategory":1,"la1":30.2991,"la2":30.254,"lo1":-89.0895,"lo2":-89.0444,"dy":0.0017,"dx":0.0017,"nx":28,"ny":28,"refTime":"2023-07-23T21:00:00:Z","depth":0,"parameterNumber":2,"parameterNumberName":"U-component_of_WINDS"},"data":[0,0,0,0,0,0,0,0,0,0,0,0,0,0,0,0,0,0,0,0,0,0,0,0,0,0,0,0,0,0,0,0,0,0,0,0,0,0,0,0,0,0,0,0,0,0,0,0,0,0,0,0,0,0,0,0,0,0,0.0712,0.0711,0,0.068,0.0679,0.0679,0.0666,0.0666,0.0666,0.0666,0.0632,0.0631,0.0631,0,0,0,0,0,0,0,0,0,0,0,0,0,0.076,0.0759,0.0712,0.0711,0.0711,0.068,0.0679,0.0679,0.0666,0.0666,0.0666,0.0666,0.0633,0.0632,0.063,0,0,0,0,0,0,0,0,0,0,0,0,0,0.0734,0.0759,0.0712,0.0701,0.07,0.068,0.0679,0.0679,0.0666,0.0666,0.0666,0.0666,0.0633,0.0632,0.063,0.0619,0,0,0.0626,0.0625,0,0,0,0,0,0,0,0,0.0736,0.0733,0.0703,0.0702,0.07,0.0677,0.0684,0.0659,0.0666,0.0679,0.0666,0.0667,0.0647,0.0645,0.0638,0.0617,0.0616,0.0626,0.0625,0.0624,0.0624,0,0,0,0,0,0,0,0.0738,0.0734,0.0699,0.0702,0.0701,0.0697,0.0693,0.0679,0.0663,0.0678,0.0677,0.0673,0.0646,0.064,0.0637,0.0615,0.0626,0.0624,0.0623,0.0623,0.0582,0.0582,0,0,0,0,0,0,0.0741,0.0735,0.07,0.0698,0.0719,0.0696,0.0692,0.0684,0.0663,0.066,0.0673,0.0673,0.0642,0.0639,0.0636,0.062,0.0624,0.0623,0.0622,0.0582,0.0582,0.0582,0,0,0,0,0,0,0.0742,0.0738,0.0701,0.0717,0.0712,0.0695,0.0686,0.0684,0.0677,0.0659,0.0656,0.0669,0.0642,0.0638,0.0623,0.0619,0.0622,0.0621,0.0582,0.0582,0.0582,0.0589,0,0,0,0,0,0,0.0744,0.0739,0.0735,0.0717,0.0711,0.069,0.0686,0.0683,0.0675,0.0674,0.0655,0.0652,0.0642,0.0625,0.0622,0.0617,0.062,0.0583,0.0582,0.0582,0.0589,0.0589,0.0589,0,0,0,0,0,0.0746,0.0738,0.0735,0.0731,0.0706,0.0689,0.0686,0.0675,0.0674,0.067,0.0658,0.0653,0.062,0.0624,0.062,0.0615,0.0583,0.0582,0.0582,0.0589,0.0589,0.0589,0,0,0,0,0,0,0.0757,0.0736,0.0732,0.0718,0.0706,0.0687,0.0681,0.0675,0.0662,0.0662,0.0648,0.0644,0.063,0.0621,0.0625,0.0602,0.0601,0.06,0.0608,0.0608,0.0608,0.061,0.0618,0,0,0,0,0,0.0758,0.0747,0.0729,0.0719,0.0713,0.0698,0.0691,0.0683,0.0669,0.0664,0.0651,0.0638,0.0624,0.0616,0.0602,0.0588,0.0583,0.0582,0.0582,0.0582,0.0581,0.0572,0.0571,0.058,0.058,0.058,0,0,0.0759,0.0747,0.074,0.0721,0.071,0.0698,0.0694,0.0682,0.0672,0.0662,0.0647,0.0637,0.0621,0.0605,0.0598,0.0597,0.0578,0.0582,0.0582,0.0581,0.0571,0.057,0.0569,0.058,0.058,0.058,0,0,0.0756,0.0746,0.0736,0.0725,0.0709,0.0699,0.0697,0.0679,0.0672,0.0656,0.0648,0.0636,0.0614,0.0602,0.0594,0.0585,0.0579,0.0581,0.0581,0.0571,0.0571,0.057,0.0566,0.0565,0.058,0.058,0.058,0,0.076,0.0743,0.0731,0.0719,0.071,0.07,0.0689,0.0679,0.066,0.0653,0.0653,0.0623,0.0612,0.0593,0.0591,0.0585,0.0581,0.0583,0.0572,0.0571,0.057,0.0566,0.0565,0.058,0.058,0.058,0.058,0,0.0748,0.0736,0.0729,0.0711,0.0701,0.069,0.0676,0.0667,0.066,0.065,0.0634,0.0619,0.0602,0.0598,0.0591,0.0578,0.0577,0.0575,0.0573,0.057,0.0565,0.0564,0.0581,0.0581,0.058,0.058,0,0,0.0751,0.0726,0.0724,0.0714,0.0695,0.0685,0.0673,0.0657,0.0649,0.0635,0.0624,0.0605,0.0602,0.0592,0.0583,0.0575,0.0568,0.0573,0.0572,0.0572,0.0551,0.0553,0.0551,0.0564,0.0563,0.0563,0.0552,0,0.0745,0.0723,0.0712,0.0695,0.0682,0.0672,0.0661,0.0648,0.0638,0.0625,0.0614,0.06,0.0598,0.0591,0.0583,0.0571,0.0563,0.0571,0.0552,0.0552,0.0556,0.0549,0.0551,0.0542,0.055,0.055,0.055,0,0.0735,0.0722,0.0703,0.0684,0.0679,0.0669,0.0652,0.0641,0.0625,0.0618,0.0607,0.0598,0.0584,0.0584,0.0563,0.0569,0.056,0.0553,0.0552,0.055,0.055,0.0546,0.0538,0.0537,0.0547,0.0548,0.0548,0,0.0739,0.0716,0.0701,0.0694,0.0672,0.0665,0.0655,0.0639,0.063,0.0615,0.0609,0.0592,0.0583,0.0571,0.0558,0.0559,0.0538,0.0537,0.0531,0.0531,0.0526,0.0527,0.0517,0.0522,0.0522,0.0522,0.0522,0,0.0733,0.0721,0.0702,0.0693,0.068,0.0666,0.0653,0.0643,0.0629,0.0617,0.0607,0.0596,0.058,0.0566,0.0556,0.054,0.0536,0.0529,0.0526,0.053,0.053,0.0523,0.0523,0.0522,0.0522,0.0522,0.0522,0,0.0734,0.0721,0.0704,0.0684,0.0679,0.067,0.0652,0.0643,0.0632,0.0617,0.0613,0.0595,0.0579,0.0565,0.0543,0.0536,0.0519,0.0516,0.0524,0.0523,0.0517,0.0517,0.0502,0.0498,0.0507,0.0507,0.0507,0,0.0731,0.0722,0.0701,0.0692,0.0683,0.0669,0.0659,0.0645,0.0635,0.0616,0.0608,0.0591,0.0576,0.055,0.0536,0.0519,0.0515,0.051,0.0512,0.0515,0.0513,0.0514,0.0512,0.051,0.051,0.051,0.051,0,0.0726,0.072,0.0706,0.069,0.0678,0.0664,0.065,0.0644,0.0627,0.0616,0.0599,0.0588,0.0565,0.0548,0.0529,0.0518,0.0511,0.051,0.0507,0.051,0.0515,0.0511,0.0523,0.051,0.051,0.051,0.051,0.051,0.0725,0.0716,0.0699,0.0684,0.0672,0.0658,0.0648,0.0636,0.0621,0.0602,0.0595,0.0577,0.056,0.0534,0.0523,0.0508,0.0507,0.0504,0.0503,0.0502,0.0502,0.0518,0.0505,0.0505,0.0505,0.0505,0.0505,0,0.0719,0.0707,0.0693,0.0674,0.0661,0.0656,0.064,0.0629,0.0614,0.0599,0.0585,0.0564,0.0547,0.0531,0.0512,0.0504,0.05,0.0499,0.0499,0.0497,0.0505,0.0508,0.0503,0.0503,0.0503,0.0503,0.0503,0.0503,0.0714,0.0698,0.069,0.0667,0.0656,0.0638,0.0629,0.0617,0.0604,0.0582,0.0568,0.0557,0.0541,0.0521,0.0505,0.05,0.0494,0.0494,0.0488,0.0496,0.0496,0.0497,0.05,0.0493,0.0493,0.0481,0.0481,0.0481]},{"header":{"parameterUnit":"m.s-1","parameterCategory":1,"la1":30.2991,"la2":30.254,"lo1":-89.0895,"lo2":-89.0444,"dy":0.0017,"dx":0.0017,"nx":28,"ny":28,"refTime":"2023-07-23T21:00:00:Z","depth":0,"parameterNumber":3,"parameterNumberName":"V-component_of_WINDS"},"data":[0,0,0,0,0,0,0,0,0,0,0,0,0,0,0,0,0,0,0,0,0,0,0,0,0,0,0,0,0,0,0,0,0,0,0,0,0,0,0,0,0,0,0,0,0,0,0,0,0,0,0,0,0,0,0,0,0,0,-0.9158,-0.9157,0,-0.9153,-0.9153,-0.9153,-0.9155,-0.9155,-0.9156,-0.9156,-0.9151,-0.915,-0.915,0,0,0,0,0,0,0,0,0,0,0,0,0,-0.9167,-0.9167,-0.9158,-0.9157,-0.9157,-0.9153,-0.9153,-0.9153,-0.9155,-0.9155,-0.9156,-0.9156,-0.9151,-0.915,-0.915,0,0,0,0,0,0,0,0,0,0,0,0,0,-0.9163,-0.9167,-0.9158,-0.9158,-0.9158,-0.9153,-0.9153,-0.9153,-0.9155,-0.9155,-0.9156,-0.9156,-0.9151,-0.915,-0.915,-0.9144,0,0,-0.9149,-0.9149,0,0,0,0,0,0,0,0,-0.9163,-0.9163,-0.9158,-0.9158,-0.9158,-0.9155,-0.9155,-0.915,-0.9155,-0.9156,-0.9156,-0.9156,-0.9152,-0.9151,-0.915,-0.9144,-0.9144,-0.9149,-0.9149,-0.9149,-0.9148,0,0,0,0,0,0,0,-0.9163,-0.9163,-0.9156,-0.9158,-0.9158,-0.9158,-0.9158,-0.9154,-0.9153,-0.9156,-0.9156,-0.9156,-0.9152,-0.9151,-0.915,-0.9144,-0.9149,-0.9149,-0.9148,-0.9148,-0.9133,-0.9133,0,0,0,0,0,0,-0.9164,-0.9163,-0.9156,-0.9156,-0.9161,-0.9158,-0.9158,-0.9156,-0.9153,-0.9153,-0.9156,-0.9156,-0.9151,-0.9151,-0.915,-0.9143,-0.9149,-0.9148,-0.9148,-0.9133,-0.9133,-0.9133,0,0,0,0,0,0,-0.9164,-0.9163,-0.9156,-0.9159,-0.9159,-0.9158,-0.9156,-0.9156,-0.9154,-0.9153,-0.9153,-0.9154,-0.9151,-0.915,-0.9146,-0.9143,-0.9148,-0.9148,-0.9133,-0.9133,-0.9133,-0.9129,0,0,0,0,0,0,-0.9164,-0.9163,-0.9161,-0.9159,-0.9158,-0.9152,-0.9155,-0.9155,-0.9154,-0.9154,-0.9152,-0.9151,-0.9151,-0.9146,-0.9145,-0.9142,-0.9147,-0.9134,-0.9133,-0.9133,-0.9129,-0.9129,-0.9128,0,0,0,0,0,-0.9165,-0.916,-0.9161,-0.916,-0.9156,-0.9152,-0.9151,-0.9151,-0.9153,-0.9151,-0.915,-0.9151,-0.9143,-0.9146,-0.9145,-0.9142,-0.9134,-0.9133,-0.9133,-0.913,-0.9129,-0.9128,0,0,0,0,0,0,-0.9161,-0.916,-0.9161,-0.9156,-0.9154,-0.9152,-0.9149,-0.915,-0.9148,-0.9148,-0.9148,-0.9148,-0.9143,-0.9142,-0.9145,-0.9136,-0.9139,-0.9138,-0.9137,-0.9136,-0.9135,-0.9135,-0.9147,0,0,0,0,0,-0.916,-0.9157,-0.9156,-0.9151,-0.9151,-0.915,-0.9149,-0.9149,-0.9147,-0.9146,-0.9145,-0.9143,-0.914,-0.9138,-0.9135,-0.9129,-0.9129,-0.9127,-0.9126,-0.9126,-0.9125,-0.9122,-0.9121,-0.9131,-0.9131,-0.9131,0,0,-0.9157,-0.9156,-0.9154,-0.9151,-0.9149,-0.9146,-0.915,-0.9146,-0.9144,-0.9146,-0.9141,-0.914,-0.9138,-0.9133,-0.913,-0.9132,-0.9122,-0.9125,-0.9125,-0.9124,-0.9121,-0.912,-0.9119,-0.9131,-0.9131,-0.9131,0,0,-0.915,-0.9149,-0.9145,-0.9144,-0.9142,-0.9142,-0.9141,-0.9139,-0.9139,-0.9135,-0.9136,-0.9133,-0.9128,-0.9126,-0.9125,-0.9118,-0.9119,-0.9117,-0.9113,-0.911,-0.9109,-0.9108,-0.9105,-0.9104,-0.9116,-0.9116,-0.9116,0,-0.9146,-0.9142,-0.9143,-0.9139,-0.9138,-0.914,-0.9136,-0.9135,-0.9132,-0.9131,-0.9132,-0.9126,-0.9125,-0.9119,-0.9117,-0.9116,-0.9115,-0.9117,-0.9109,-0.9108,-0.9108,-0.9105,-0.9104,-0.9116,-0.9116,-0.9116,-0.9116,0,-0.9138,-0.9135,-0.9132,-0.9129,-0.9127,-0.9124,-0.9124,-0.9122,-0.9123,-0.9122,-0.9118,-0.9116,-0.9113,-0.9112,-0.9113,-0.9107,-0.9107,-0.9109,-0.9112,-0.9106,-0.9104,-0.9103,-0.9116,-0.9116,-0.9116,-0.9116,0,0,-0.9127,-0.9126,-0.9125,-0.9124,-0.9122,-0.912,-0.9116,-0.9114,-0.9112,-0.911,-0.9107,-0.9103,-0.9104,-0.9103,-0.9103,-0.9101,-0.9095,-0.9103,-0.9103,-0.9101,-0.9088,-0.9086,-0.9085,-0.9096,-0.9095,-0.9095,-0.9088,0,-0.912,-0.9114,-0.9115,-0.9109,-0.9106,-0.9108,-0.9105,-0.9104,-0.9103,-0.9101,-0.9101,-0.9098,-0.91,-0.9099,-0.9097,-0.9096,-0.9092,-0.9097,-0.9092,-0.9092,-0.9092,-0.9083,-0.9081,-0.9074,-0.9087,-0.9086,-0.9086,0,-0.911,-0.9108,-0.9102,-0.9101,-0.91,-0.9097,-0.9095,-0.9093,-0.9091,-0.9091,-0.909,-0.9091,-0.9087,-0.909,-0.9085,-0.9088,-0.9087,-0.9086,-0.9086,-0.9085,-0.9088,-0.9082,-0.9072,-0.9071,-0.9085,-0.9085,-0.9085,0,-0.9103,-0.9099,-0.9095,-0.9094,-0.9093,-0.9091,-0.909,-0.9089,-0.9087,-0.9085,-0.9084,-0.9082,-0.908,-0.9078,-0.9079,-0.9081,-0.9073,-0.9077,-0.9073,-0.9073,-0.907,-0.907,-0.906,-0.907,-0.907,-0.907,-0.907,0,-0.9094,-0.909,-0.9091,-0.9089,-0.9084,-0.9086,-0.9081,-0.9081,-0.908,-0.9077,-0.9079,-0.9076,-0.9077,-0.9074,-0.9075,-0.907,-0.907,-0.9069,-0.9069,-0.9069,-0.9069,-0.9067,-0.9067,-0.907,-0.907,-0.907,-0.907,0,-0.9085,-0.9086,-0.9081,-0.9081,-0.908,-0.9077,-0.9077,-0.9074,-0.9074,-0.9071,-0.907,-0.907,-0.9067,-0.9068,-0.9064,-0.9064,-0.9058,-0.9059,-0.9059,-0.9059,-0.9055,-0.9055,-0.9042,-0.904,-0.9053,-0.9053,-0.9053,0,-0.9079,-0.9076,-0.9075,-0.9073,-0.9073,-0.907,-0.9069,-0.907,-0.9068,-0.9067,-0.9064,-0.9062,-0.9059,-0.9054,-0.9054,-0.9051,-0.9052,-0.9048,-0.9051,-0.9051,-0.9051,-0.9051,-0.9051,-0.9047,-0.9046,-0.9046,-0.9046,0,-0.9068,-0.9068,-0.9066,-0.9064,-0.9062,-0.9061,-0.906,-0.9058,-0.9059,-0.9057,-0.9054,-0.9053,-0.905,-0.9047,-0.9044,-0.9044,-0.9045,-0.9045,-0.9044,-0.9043,-0.9043,-0.9042,-0.9056,-0.9045,-0.9045,-0.9045,-0.9046,-0.9046,-0.9059,-0.9057,-0.9056,-0.9054,-0.9053,-0.9052,-0.9049,-0.9049,-0.9047,-0.9044,-0.9046,-0.9042,-0.9041,-0.9038,-0.9037,-0.9034,-0.9036,-0.9034,-0.9034,-0.9033,-0.9033,-0.9044,-0.9034,-0.9034,-0.9034,-0.9034,-0.9034,0,-0.9048,-0.9048,-0.9046,-0.9044,-0.9042,-0.9044,-0.9043,-0.9041,-0.9038,-0.9037,-0.9035,-0.9032,-0.9029,-0.9029,-0.9026,-0.9024,-0.9025,-0.9023,-0.9023,-0.9023,-0.9032,-0.9033,-0.9023,-0.9023,-0.9023,-0.9023,-0.9023,-0.9023,-0.9042,-0.9037,-0.9038,-0.9033,-0.9033,-0.903,-0.9029,-0.9028,-0.9027,-0.9023,-0.9021,-0.9022,-0.9021,-0.9018,-0.9016,-0.9016,-0.9015,-0.9013,-0.9013,-0.9021,-0.9022,-0.9023,-0.9024,-0.9013,-0.9013,-0.9004,-0.9004,-0.9004]}]]